When you browse on this site, cookies collect data to enhance your experience and personalize the content and advertising you see.
Visit our Privacy Policy to learn more. By continuing to use the site, you agree to this use of cookies and data.
EN

Hourly Weather Leba

Today, 5 August, Wednesday

Time Temperature Precipitation Wind Pressure Humidity
00:00 +13°C° 0 mm 4 mps 761 mmHg 89%
01:00 +12°C° 0 mm 4 mps 761 mmHg 91%
02:00 +12°C° 0 mm 4 mps 762 mmHg 91%
03:00 +12°C° 0 mm 3 mps 762 mmHg 91%
04:00 +12°C° 0 mm 3 mps 762 mmHg 91%
05:00 +13°C° 0 mm 3 mps 762 mmHg 85%
06:00 +16°C° 0 mm 3 mps 763 mmHg 79%
07:00 +17°C° 0 mm 4 mps 763 mmHg 72%
08:00 +18°C° 0 mm 4 mps 764 mmHg 64%
09:00 +20°C° 0 mm 4 mps 764 mmHg 55%
10:00 +21°C° 0 mm 3 mps 764 mmHg 47%
11:00 +22°C° 0 mm 3 mps 764 mmHg 45%
12:00 +24°C° 0 mm 3 mps 764 mmHg 43%
13:00 +24°C° 0 mm 2 mps 764 mmHg 41%
14:00 +25°C° 0 mm 2 mps 764 mmHg 41%
15:00 +25°C° 0 mm 2 mps 764 mmHg 42%
16:00 +25°C° 0 mm 2 mps 764 mmHg 43%
17:00 +23°C° 0 mm 2 mps 764 mmHg 50%
18:00 +21°C° 0 mm 3 mps 765 mmHg 57%
19:00 +19°C° 0 mm 3 mps 765 mmHg 64%
20:00 +19°C° 0 mm 3 mps 765 mmHg 65%
21:00 +18°C° 0 mm 4 mps 765 mmHg 66%
22:00 +17°C° 0 mm 4 mps 765 mmHg 67%
23:00 +17°C° 0 mm 4 mps 765 mmHg 67%

Tomorrow, 6 August, Thursday

Time Temperature Precipitation Wind Pressure Humidity
00:00 +17°C° 0 mm 4 mps 766 mmHg 68%
01:00 +15°C° 0 mm 4 mps 766 mmHg 68%
02:00 +15°C° 0 mm 4 mps 766 mmHg 68%
03:00 +15°C° 0 mm 4 mps 766 mmHg 69%
04:00 +15°C° 0 mm 4 mps 766 mmHg 70%
05:00 +17°C° 0 mm 4 mps 766 mmHg 67%
06:00 +18°C° 0 mm 4 mps 767 mmHg 64%
07:00 +20°C° 0 mm 4 mps 767 mmHg 61%
08:00 +22°C° 0 mm 3 mps 767 mmHg 56%
09:00 +24°C° 0 mm 2 mps 768 mmHg 51%
10:00 +26°C° 0 mm 2 mps 768 mmHg 45%
11:00 +27°C° 0 mm 2 mps 768 mmHg 43%
12:00 +28°C° 0 mm 2 mps 768 mmHg 41%
13:00 +28°C° 0 mm 2 mps 768 mmHg 39%
14:00 +28°C° 0 mm 3 mps 768 mmHg 40%
15:00 +28°C° 0 mm 3 mps 768 mmHg 41%
16:00 +28°C° 0 mm 4 mps 768 mmHg 42%
17:00 +26°C° 0 mm 4 mps 768 mmHg 49%
18:00 +23°C° 0 mm 4 mps 768 mmHg 55%
19:00 +21°C° 0 mm 4 mps 768 mmHg 62%
20:00 +20°C° 0 mm 4 mps 768 mmHg 66%
21:00 +19°C° 0 mm 4 mps 769 mmHg 71%
22:00 +18°C° 0 mm 4 mps 769 mmHg 75%
23:00 +17°C° 0 mm 4 mps 769 mmHg 76%

Day after tomorrow, 7 August, Friday

Time Temperature Precipitation Wind Pressure Humidity
00:00 +17°C° 0 mm 3 mps 769 mmHg 78%
01:00 +17°C° 0 mm 3 mps 769 mmHg 80%
02:00 +17°C° 0 mm 3 mps 769 mmHg 79%
03:00 +17°C° 0 mm 3 mps 769 mmHg 79%
04:00 +16°C° 0 mm 2 mps 769 mmHg 79%
05:00 +18°C° 0 mm 2 mps 769 mmHg 74%
06:00 +20°C° 0 mm 2 mps 769 mmHg 69%
07:00 +21°C° 0 mm 2 mps 769 mmHg 65%
08:00 +24°C° 0 mm 3 mps 769 mmHg 60%
09:00 +26°C° 0 mm 3 mps 769 mmHg 55%
10:00 +27°C° 0 mm 3 mps 769 mmHg 50%
11:00 +28°C° 0 mm 4 mps 769 mmHg 49%
12:00 +29°C° 0 mm 4 mps 769 mmHg 48%
13:00 +29°C° 0 mm 4 mps 769 mmHg 47%
14:00 +29°C° 0 mm 5 mps 769 mmHg 50%
15:00 +29°C° 0 mm 5 mps 768 mmHg 52%
16:00 +29°C° 0 mm 5 mps 768 mmHg 55%
17:00 +27°C° 0 mm 5 mps 768 mmHg 61%
18:00 +26°C° 0 mm 5 mps 768 mmHg 66%
19:00 +23°C° 0 mm 4 mps 768 mmHg 72%
20:00 +22°C° 0 mm 4 mps 768 mmHg 73%
21:00 +22°C° 0 mm 4 mps 768 mmHg 75%
22:00 +21°C° 0 mm 4 mps 768 mmHg 77%
23:00 +21°C° 0 mm 4 mps 768 mmHg 78%

8 August, Saturday

Time Temperature Precipitation Wind Pressure Humidity
00:00 +21°C° 0 mm 4 mps 768 mmHg 79%
01:00 +20°C° 0 mm 3 mps 767 mmHg 80%
02:00 +20°C° 0 mm 3 mps 767 mmHg 81%
03:00 +20°C° 0 mm 3 mps 767 mmHg 82%
04:00 +20°C° 0 mm 2 mps 767 mmHg 83%
05:00 +21°C° 0 mm 2 mps 767 mmHg 79%
06:00 +23°C° 0 mm 2 mps 767 mmHg 76%
07:00 +24°C° 0 mm 2 mps 767 mmHg 73%
08:00 +26°C° 0 mm 2 mps 767 mmHg 67%
09:00 +28°C° 0 mm 2 mps 767 mmHg 61%
10:00 +29°C° 0 mm 2 mps 767 mmHg 56%
11:00 +30°C° 0.1 mm 3 mps 767 mmHg 53%
12:00 +31°C° 0.1 mm 3 mps 767 mmHg 50%
13:00 +32°C° 0.1 mm 4 mps 766 mmHg 46%
14:00 +32°C° 0.8 mm 4 mps 766 mmHg 49%
15:00 +30°C° 0.8 mm 4 mps 766 mmHg 51%
16:00 +30°C° 0.8 mm 4 mps 766 mmHg 53%
17:00 +28°C° 0.6 mm 4 mps 765 mmHg 60%
18:00 +27°C° 0.6 mm 4 mps 765 mmHg 66%
19:00 +25°C° 0.6 mm 3 mps 765 mmHg 73%
20:00 +24°C° 0.3 mm 3 mps 765 mmHg 76%
21:00 +22°C° 0.3 mm 3 mps 765 mmHg 80%
22:00 +21°C° 0.3 mm 3 mps 765 mmHg 84%
23:00 +21°C° 0.1 mm 2 mps 765 mmHg 84%

9 August, Sunday

Time Temperature Precipitation Wind Pressure Humidity
00:00 +21°C° 0.1 mm 2 mps 765 mmHg 85%
01:00 +21°C° 0.1 mm 2 mps 765 mmHg 85%
02:00 +21°C° 0.1 mm 1 mps 765 mmHg 86%
03:00 +21°C° 0.1 mm 1 mps 765 mmHg 87%
04:00 +21°C° 0.1 mm 1 mps 765 mmHg 88%
05:00 +22°C° 0 mm 1 mps 765 mmHg 84%
06:00 +23°C° 0 mm 1 mps 765 mmHg 80%
07:00 +25°C° 0 mm 1 mps 765 mmHg 77%
08:00 +26°C° 0 mm 2 mps 765 mmHg 69%
09:00 +28°C° 0 mm 2 mps 765 mmHg 62%
10:00 +29°C° 0 mm 3 mps 765 mmHg 55%
11:00 +30°C° 0.1 mm 3 mps 765 mmHg 54%
12:00 +30°C° 0.1 mm 4 mps 765 mmHg 53%
13:00 +30°C° 0.1 mm 4 mps 765 mmHg 52%
14:00 +29°C° 0.3 mm 4 mps 765 mmHg 56%
15:00 +29°C° 0.3 mm 5 mps 765 mmHg 60%
16:00 +28°C° 0.3 mm 5 mps 764 mmHg 64%
17:00 +26°C° 0 mm 5 mps 764 mmHg 69%
18:00 +25°C° 0 mm 4 mps 764 mmHg 74%
19:00 +23°C° 0 mm 4 mps 764 mmHg 79%
20:00 +22°C° 0 mm 4 mps 764 mmHg 83%
21:00 +21°C° 0 mm 4 mps 765 mmHg 87%
22:00 +20°C° 0 mm 4 mps 765 mmHg 91%
23:00 +19°C° 0 mm 4 mps 765 mmHg 92%

10 August, Monday

Time Temperature Precipitation Wind Pressure Humidity
00:00 +19°C° 0 mm 3 mps 765 mmHg 92%
01:00 +19°C° 0 mm 3 mps 765 mmHg 93%
02:00 +19°C° 0 mm 3 mps 765 mmHg 93%
03:00 +19°C° 0 mm 3 mps 765 mmHg 94%
04:00 +19°C° 0 mm 3 mps 764 mmHg 94%
05:00 +20°C° 0 mm 3 mps 765 mmHg 88%
06:00 +22°C° 0 mm 3 mps 765 mmHg 82%
07:00 +24°C° 0 mm 3 mps 765 mmHg 77%
08:00 +25°C° 0 mm 3 mps 765 mmHg 70%
09:00 +27°C° 0 mm 4 mps 765 mmHg 64%
10:00 +28°C° 0 mm 4 mps 765 mmHg 57%
11:00 +29°C° 0.1 mm 5 mps 765 mmHg 55%
12:00 +29°C° 0.1 mm 5 mps 765 mmHg 52%
13:00 +29°C° 0.1 mm 6 mps 765 mmHg 49%
14:00 +29°C° 0 mm 6 mps 765 mmHg 51%
15:00 +28°C° 0 mm 6 mps 765 mmHg 53%
16:00 +28°C° 0 mm 6 mps 765 mmHg 55%
17:00 +26°C° 0 mm 6 mps 765 mmHg 61%
18:00 +25°C° 0 mm 5 mps 765 mmHg 68%
19:00 +22°C° 0 mm 5 mps 765 mmHg 74%
20:00 +21°C° 0 mm 5 mps 765 mmHg 78%
21:00 +20°C° 0 mm 5 mps 765 mmHg 83%
22:00 +19°C° 0 mm 4 mps 765 mmHg 87%
23:00 +19°C° 0 mm 4 mps 765 mmHg 88%
Show more